QPF
0.00 0.00 0.00 0.00 0.00 0.00 0.00 0.00 0.00 0.00 0.00 0.00 0.00 0.00 0.00 0.00 0.00 0.01 0.01 0.01 0.01 0.01 0.00 0.00 0.01 0.01 0.00 0.00 0.00 0.00 0.01 0.01 0.01 0.01 0.03 0.04 0.03 0.03 0.04 0.03 0.03 0.04 0.04 0.04
0.00 0.00 0.00 0.00 0.00 0.00 0.00 0.00 0.00 0.00 0.00 0.00 0.00 0.00 0.00 0.00 0.00 0.00 0.00 0.00 0.01 0.00 0.00 0.01 0.01 0.01 0.01 0.01 0.01 0.00 0.01 0.01 0.01 0.01 0.02 0.03 0.03 0.03 0.04 0.04 0.03 0.03 0.04 0.05
0.00 0.00 0.00 0.00 0.00 0.00 0.00 0.00 0.00 0.00 0.00 0.00 0.00 0.00 0.00 0.00 0.00 0.00 0.00 0.00 0.00 0.00 0.00 0.01 0.01 0.01 0.01 0.01 0.00 0.00 0.01 0.01 0.01 0.02 0.02 0.02 0.04 0.05 0.04 0.04 0.04 0.03 0.04 0.04
0.00 0.00 0.00 0.00 0.00 0.00 0.00 0.00 0.00 0.00 0.00 0.00 0.00 0.00 0.00 0.00 0.00 0.00 0.00 0.00 0.00 0.00 0.00 0.00 0.00 0.00 0.01 0.01 0.01 0.01 0.01 0.01 0.01 0.02 0.03 0.03 0.03 0.05 0.04 0.04 0.06 0.07 0.05 0.04
0.00 0.00 0.00 0.00 0.00 0.00 0.00 0.00 0.00 0.00 0.00 0.00 0.00 0.00 0.00 0.00 0.00 0.00 0.00 0.00 0.00 0.00 0.00 0.00 0.00 0.00 0.00 0.00 0.01 0.01 0.02 0.02 0.01 0.02 0.03 0.03 0.02 0.03 0.04 0.04 0.05 0.05 0.04 0.03
0.01 0.00 0.00 0.00 0.00 0.00 0.00 0.00 0.00 0.00 0.00 0.00 0.00 0.00 0.00 0.00 0.00 0.00 0.00 0.00 0.00 0.00 0.00 0.00 0.00 0.00 0.00 0.00 0.00 0.01 0.01 0.02 0.02 0.01 0.02 0.03 0.03 0.03 0.05 0.05 0.04 0.04 0.04 0.04
0.01 0.01 0.00 0.00 0.00 0.00 0.00 0.00 0.00 0.01 0.01 0.00 0.00 0.01 0.01 0.00 0.00 0.00 0.00 0.00 0.00 0.00 0.00 0.00 0.00 0.00 0.00 0.00 0.00 0.01 0.01 0.03 0.03 0.01 0.02 0.02 0.03 0.04 0.04 0.05 0.04 0.05 0.05 0.05
0.01 0.01 0.01 0.00 0.00 0.00 0.00 0.00 0.00 0.00 0.01 0.00 0.00 0.00 0.01 0.01 0.00 0.00 0.00 0.00 0.00 0.00 0.00 0.00 0.00 0.00 0.00 0.00 0.00 0.01 0.01 0.02 0.04 0.02 0.02 0.01 0.02 0.02 0.03 0.04 0.04 0.04 0.05 0.05
0.01 0.01 0.00 0.00 0.00 0.01 0.00 0.00 0.00 0.00 0.00 0.00 0.00 0.01 0.01 0.01 0.01 0.01 0.00 0.00 0.00 0.00 0.00 0.00 0.00 0.00 0.00 0.00 0.00 0.00 0.01 0.01 0.02 0.02 0.02 0.02 0.02 0.02 0.02 0.03 0.03 0.04 0.04 0.05
0.01 0.01 0.00 0.00 0.00 0.01 0.00 0.00 0.00 0.00 0.00 0.00 0.00 0.00 0.01 0.01 0.01 0.01 0.00 0.00 0.00 0.00 0.00 0.00 0.00 0.00 0.00 0.00 0.01 0.01 0.01 0.01 0.01 0.01 0.02 0.02 0.02 0.02 0.02 0.02 0.02 0.03 0.04 0.05
0.02 0.01 0.01 0.01 0.00 0.00 0.00 0.00 0.00 0.00 0.00 0.00 0.00 0.01 0.01 0.01 0.01 0.00 0.00 0.00 0.00 0.00 0.01 0.01 0.00 0.00 0.01 0.00 0.01 0.01 0.01 0.02 0.02 0.02 0.02 0.02 0.03 0.02 0.02 0.02 0.02 0.03 0.04 0.05
0.02 0.02 0.01 0.01 0.00 0.00 0.00 0.00 0.00 0.00 0.00 0.00 0.00 0.01 0.01 0.01 0.01 0.01 0.01 0.01 0.01 0.01 0.01 0.01 0.01 0.01 0.01 0.01 0.01 0.01 0.01 0.02 0.02 0.03 0.02 0.03 0.03 0.03 0.04 0.03 0.03 0.04 0.05 0.06
0.01 0.01 0.01 0.01 0.01 0.00 0.00 0.00 0.00 0.00 0.00 0.00 0.00 0.01 0.01 0.01 0.01 0.01 0.01 0.01 0.01 0.01 0.01 0.00 0.00 0.01 0.01 0.01 0.01 0.02 0.02 0.02 0.02 0.02 0.03 0.03 0.03 0.04 0.04 0.05 0.04 0.04 0.05 0.05
0.01 0.01 0.01 0.01 0.01 0.01 0.01 0.01 0.00 0.00 0.00 0.00 0.00 0.00 0.00 0.01 0.01 0.01 0.01 0.01 0.01 0.01 0.00 0.00 0.00 0.00 0.01 0.01 0.02 0.02 0.03 0.03 0.02 0.02 0.02 0.03 0.03 0.03 0.03 0.04 0.04 0.03 0.04 0.04
0.00 0.00 0.01 0.00 0.01 0.01 0.01 0.01 0.01 0.00 0.00 0.00 0.00 0.00 0.00 0.00 0.00 0.00 0.01 0.01 0.01 0.01 0.01 0.01 0.00 0.00 0.01 0.01 0.02 0.02 0.02 0.03 0.03 0.02 0.02 0.02 0.02 0.02 0.02 0.03 0.03 0.03 0.03 0.05
0.00 0.00 0.00 0.00 0.00 0.00 0.00 0.01 0.01 0.01 0.01 0.01 0.01 0.01 0.01 0.01 0.01 0.01 0.01 0.01 0.01 0.01 0.00 0.01 0.01 0.01 0.01 0.01 0.01 0.02 0.02 0.03 0.02 0.02 0.02 0.02 0.02 0.02 0.02 0.02 0.02 0.02 0.03 0.05
0.00 0.00 0.00 0.00 0.00 0.00 0.00 0.00 0.00 0.01 0.01 0.01 0.02 0.02 0.02 0.02 0.01 0.01 0.02 0.02 0.01 0.01 0.01 0.01 0.01 0.01 0.01 0.01 0.01 0.02 0.02 0.01 0.01 0.01 0.01 0.01 0.01 0.01 0.01 0.02 0.02 0.02 0.02 0.04
0.00 0.00 0.00 0.00 0.00 0.00 0.00 0.00 0.00 0.00 0.01 0.01 0.01 0.01 0.01 0.01 0.02 0.02 0.02 0.02 0.02 0.01 0.01 0.01 0.01 0.00 0.01 0.01 0.01 0.00 0.01 0.01 0.01 0.00 0.00 0.00 0.00 0.01 0.01 0.01 0.01 0.02 0.02 0.02
0.00 0.00 0.00 0.00 0.00 0.00 0.00 0.00 0.00 0.00 0.00 0.01 0.01 0.01 0.01 0.01 0.01 0.01 0.01 0.01 0.01 0.01 0.01 0.01 0.01 0.00 0.01 0.01 0.01 0.01 0.01 0.01 0.00 0.00 0.00 0.00 0.00 0.00 0.00 0.01 0.01 0.01 0.01 0.01
0.00 0.00 0.00 0.00 0.00 0.00 0.00 0.00 0.00 0.00 0.00 0.01 0.01 0.01 0.02 0.01 0.01 0.01 0.00 0.00 0.00 0.00 0.01 0.01 0.00 0.00 0.00 0.01 0.01 0.00 0.01 0.01 0.01 0.00 0.00 0.00 0.00 0.01 0.01 0.01 0.01 0.01 0.01 0.01
0.00 0.00 0.00 0.00 0.00 0.00 0.01 0.01 0.00 0.00 0.00 0.01 0.01 0.01 0.01 0.01 0.00 0.00 0.00 0.00 0.00 0.00 0.00 0.00 0.00 0.00 0.01 0.01 0.01 0.01 0.01 0.01 0.01 0.01 0.01 0.00 0.00 0.01 0.01 0.01 0.01 0.01 0.01 0.01
0.00 0.00 0.00 0.00 0.00 0.00 0.01 0.01 0.01 0.01 0.01 0.01 0.01 0.01 0.00 0.00 0.00 0.00 0.00 0.00 0.00 0.00 0.01 0.00 0.01 0.01 0.01 0.01 0.01 0.01 0.01 0.01 0.01 0.01 0.01 0.01 0.01 0.01 0.02 0.01 0.01 0.01 0.01 0.01
0.00 0.00 0.00 0.00 0.00 0.00 0.00 0.00 0.01 0.00 0.00 0.01 0.01 0.01 0.01 0.01 0.00 0.01 0.00 0.00 0.00 0.01 0.01 0.01 0.01 0.02 0.02 0.01 0.01 0.01 0.01 0.01 0.02 0.02 0.02 0.02 0.02 0.03 0.03 0.02 0.01 0.01 0.01 0.01
0.00 0.00 0.00 0.00 0.00 0.00 0.00 0.00 0.01 0.01 0.00 0.00 0.00 0.00 0.00 0.00 0.00 0.00 0.00 0.01 0.01 0.01 0.01 0.02 0.02 0.02 0.03 0.03 0.02 0.02 0.01 0.02 0.02 0.02 0.03 0.03 0.03 0.04 0.03 0.03 0.02 0.01 0.01 0.01
0.00 0.00 0.00 0.01 0.01 0.01 0.01 0.01 0.01 0.01 0.01 0.01 0.01 0.00 0.00 0.00 0.00 0.01 0.01 0.01 0.01 0.02 0.01 0.02 0.02 0.03 0.03 0.04 0.04 0.04 0.03 0.03 0.03 0.03 0.03 0.03 0.03 0.04 0.03 0.03 0.02 0.02 0.02 0.02
0.00 0.00 0.01 0.01 0.01 0.01 0.01 0.01 0.01 0.01 0.01 0.01 0.00 0.00 0.00 0.00 0.00 0.01 0.01 0.01 0.01 0.02 0.02 0.02 0.03 0.04 0.03 0.04 0.04 0.04 0.04 0.04 0.04 0.04 0.04 0.04 0.04 0.04 0.03 0.02 0.01 0.01 0.02 0.02
0.02 0.02 0.02 0.02 0.02 0.01 0.01 0.01 0.01 0.01 0.01 0.00 0.00 0.00 0.00 0.00 0.00 0.01 0.01 0.01 0.01 0.02 0.03 0.03 0.03 0.03 0.03 0.04 0.03 0.03 0.04 0.04 0.04 0.04 0.04 0.04 0.04 0.04 0.03 0.03 0.02 0.02 0.03 0.03
MSLP
1018.34 1018.66 1019.00 1019.33 1019.61 1019.78 1019.82 1019.69 1019.38 1018.92 1018.34 1017.70 1017.04 1016.44 1015.93 1015.54 1015.27 1015.11 1015.04 1015.03 1015.04 1015.07 1015.10 1015.14 1015.22 1015.34 1015.54 1015.84 1016.25 1016.75 1017.34 1018.00 1018.69 1019.39 1020.07 1020.70 1021.29 1021.80 1022.26 1022.65 1022.98 1023.27 1023.53 1023.77
1018.60 1018.77 1018.91 1019.02 1019.08 1019.07 1018.97 1018.77 1018.48 1018.13 1017.72 1017.29 1016.87 1016.49 1016.17 1015.90 1015.68 1015.51 1015.36 1015.23 1015.10 1014.99 1014.89 1014.83 1014.84 1014.92 1015.11 1015.41 1015.82 1016.32 1016.90 1017.55 1018.22 1018.91 1019.58 1020.21 1020.80 1021.34 1021.82 1022.24 1022.60 1022.91 1023.18 1023.42
1018.97 1018.97 1018.92 1018.82 1018.67 1018.48 1018.26 1018.02 1017.77 1017.51 1017.27 1017.05 1016.86 1016.69 1016.53 1016.38 1016.21 1016.02 1015.81 1015.57 1015.32 1015.07 1014.86 1014.70 1014.63 1014.66 1014.81 1015.07 1015.45 1015.92 1016.46 1017.05 1017.68 1018.32 1018.96 1019.58 1020.17 1020.72 1021.23 1021.68 1022.09 1022.43 1022.74 1023.00
1019.48 1019.31 1019.07 1018.77 1018.44 1018.10 1017.78 1017.50 1017.27 1017.10 1017.01 1016.96 1016.96 1016.96 1016.95 1016.90 1016.78 1016.59 1016.34 1016.02 1015.67 1015.32 1015.01 1014.77 1014.62 1014.58 1014.67 1014.87 1015.18 1015.57 1016.03 1016.54 1017.08 1017.65 1018.23 1018.81 1019.39 1019.95 1020.49 1020.99 1021.44 1021.85 1022.20 1022.50
1020.09 1019.77 1019.36 1018.90 1018.41 1017.94 1017.53 1017.21 1016.99 1016.89 1016.90 1016.98 1017.11 1017.25 1017.35 1017.38 1017.31 1017.14 1016.86 1016.51 1016.10 1015.70 1015.32 1015.01 1014.80 1014.70 1014.71 1014.82 1015.03 1015.32 1015.66 1016.05 1016.48 1016.95 1017.45 1017.98 1018.53 1019.10 1019.66 1020.20 1020.70 1021.16 1021.57 1021.92
1020.72 1020.28 1019.75 1019.16 1018.55 1017.98 1017.50 1017.14 1016.92 1016.84 1016.90 1017.06 1017.28 1017.50 1017.67 1017.77 1017.74 1017.60 1017.34 1016.98 1016.58 1016.15 1015.75 1015.42 1015.16 1015.00 1014.93 1014.96 1015.05 1015.21 1015.42 1015.67 1015.97 1016.32 1016.72 1017.18 1017.69 1018.23 1018.80 1019.37 1019.91 1020.42 1020.87 1021.27
1021.26 1020.75 1020.14 1019.47 1018.79 1018.17 1017.63 1017.24 1017.00 1016.93 1017.00 1017.18 1017.43 1017.69 1017.91 1018.04 1018.06 1017.96 1017.74 1017.43 1017.06 1016.66 1016.29 1015.95 1015.68 1015.48 1015.35 1015.28 1015.26 1015.29 1015.36 1015.47 1015.63 1015.85 1016.14 1016.51 1016.95 1017.46 1018.01 1018.57 1019.13 1019.65 1020.13 1020.55
1021.61 1021.08 1020.44 1019.76 1019.06 1018.42 1017.87 1017.46 1017.20 1017.11 1017.17 1017.34 1017.58 1017.84 1018.07 1018.23 1018.29 1018.23 1018.08 1017.84 1017.54 1017.21 1016.89 1016.59 1016.34 1016.12 1015.94 1015.80 1015.68 1015.59 1015.52 1015.49 1015.52 1015.61 1015.79 1016.06 1016.42 1016.86 1017.36 1017.89 1018.42 1018.92 1019.38 1019.79
1021.69 1021.18 1020.59 1019.94 1019.29 1018.68 1018.15 1017.75 1017.50 1017.39 1017.42 1017.55 1017.76 1018.00 1018.21 1018.38 1018.47 1018.47 1018.39 1018.23 1018.03 1017.80 1017.55 1017.32 1017.10 1016.88 1016.68 1016.48 1016.29 1016.10 1015.92 1015.78 1015.68 1015.66 1015.72 1015.89 1016.15 1016.50 1016.92 1017.37 1017.84 1018.28 1018.69 1019.05
1021.51 1021.07 1020.55 1020.00 1019.44 1018.91 1018.46 1018.10 1017.86 1017.75 1017.75 1017.85 1018.01 1018.21 1018.40 1018.56 1018.67 1018.73 1018.71 1018.65 1018.54 1018.41 1018.26 1018.09 1017.91 1017.73 1017.52 1017.29 1017.04 1016.78 1016.52 1016.29 1016.10 1015.98 1015.94 1016.01 1016.17 1016.42 1016.73 1017.08 1017.44 1017.79 1018.11 1018.38
1021.13 1020.78 1020.38 1019.96 1019.53 1019.13 1018.78 1018.49 1018.30 1018.20 1018.18 1018.25 1018.37 1018.52 1018.68 1018.83 1018.95 1019.04 1019.09 1019.10 1019.08 1019.03 1018.96 1018.86 1018.74 1018.58 1018.38 1018.14 1017.86 1017.56 1017.26 1016.96 1016.71 1016.52 1016.41 1016.39 1016.45 1016.59 1016.79 1017.02 1017.26 1017.49 1017.69 1017.86
1020.68 1020.44 1020.17 1019.90 1019.62 1019.36 1019.13 1018.94 1018.81 1018.74 1018.73 1018.77 1018.85 1018.96 1019.09 1019.21 1019.34 1019.44 1019.52 1019.59 1019.63 1019.64 1019.63 1019.58 1019.49 1019.35 1019.17 1018.93 1018.65 1018.34 1018.03 1017.72 1017.44 1017.21 1017.05 1016.97 1016.95 1016.99 1017.08 1017.19 1017.31 1017.41 1017.50 1017.56
1020.32 1020.17 1020.03 1019.90 1019.78 1019.66 1019.56 1019.47 1019.41 1019.38 1019.37 1019.40 1019.45 1019.52 1019.60 1019.70 1019.80 1019.90 1020.00 1020.08 1020.14 1020.19 1020.20 1020.18 1020.11 1019.99 1019.82 1019.60 1019.34 1019.04 1018.74 1018.45 1018.18 1017.95 1017.77 1017.65 1017.58 1017.55 1017.55 1017.56 1017.56 1017.55 1017.53 1017.49
1020.16 1020.10 1020.07 1020.06 1020.07 1020.07 1020.08 1020.09 1020.09 1020.09 1020.09 1020.10 1020.12 1020.15 1020.20 1020.26 1020.32 1020.39 1020.47 1020.54 1020.60 1020.64 1020.65 1020.62 1020.56 1020.44 1020.29 1020.08 1019.85 1019.59 1019.33 1019.08 1018.84 1018.65 1018.48 1018.36 1018.26 1018.19 1018.13 1018.06 1017.98 1017.88 1017.76 1017.64
1020.27 1020.28 1020.33 1020.42 1020.52 1020.62 1020.71 1020.78 1020.82 1020.84 1020.85 1020.84 1020.83 1020.82 1020.82 1020.82 1020.84 1020.87 1020.90 1020.93 1020.95 1020.96 1020.94 1020.90 1020.82 1020.70 1020.55 1020.37 1020.17 1019.97 1019.76 1019.57 1019.40 1019.25 1019.12 1019.02 1018.92 1018.83 1018.73 1018.61 1018.47 1018.31 1018.13 1017.94
1020.66 1020.72 1020.83 1020.98 1021.14 1021.29 1021.42 1021.52 1021.58 1021.61 1021.60 1021.56 1021.52 1021.46 1021.41 1021.36 1021.32 1021.29 1021.27 1021.24 1021.21 1021.16 1021.10 1021.02 1020.91 1020.78 1020.64 1020.49 1020.33 1020.18 1020.04 1019.92 1019.81 1019.72 1019.64 1019.57 1019.49 1019.39 1019.27 1019.12 1018.94 1018.74 1018.51 1018.28
1021.27 1021.36 1021.51 1021.69 1021.87 1022.04 1022.18 1022.28 1022.33 1022.33 1022.30 1022.23 1022.14 1022.04 1021.94 1021.84 1021.74 1021.65 1021.56 1021.48 1021.38 1021.28 1021.16 1021.04 1020.91 1020.77 1020.63 1020.50 1020.38 1020.28 1020.20 1020.14 1020.10 1020.06 1020.02 1019.98 1019.91 1019.81 1019.68 1019.50 1019.30 1019.06 1018.81 1018.55
1022.00 1022.12 1022.28 1022.46 1022.64 1022.80 1022.92 1022.99 1023.01 1022.99 1022.92 1022.81 1022.69 1022.54 1022.40 1022.25 1022.10 1021.95 1021.81 1021.66 1021.51 1021.36 1021.19 1021.03 1020.87 1020.72 1020.59 1020.48 1020.39 1020.33 1020.30 1020.28 1020.28 1020.28 1020.26 1020.23 1020.15 1020.04 1019.88 1019.69 1019.45 1019.19 1018.90 1018.62
1022.74 1022.87 1023.04 1023.21 1023.37 1023.50 1023.58 1023.62 1023.60 1023.54 1023.43 1023.30 1023.14 1022.96 1022.78 1022.60 1022.41 1022.22 1022.03 1021.84 1021.65 1021.45 1021.25 1021.06 1020.88 1020.72 1020.59 1020.49 1020.42 1020.38 1020.37 1020.37 1020.38 1020.38 1020.36 1020.30 1020.20 1020.05 1019.85 1019.62 1019.34 1019.04 1018.73 1018.42
1023.39 1023.54 1023.70 1023.86 1023.99 1024.09 1024.13 1024.13 1024.08 1023.98 1023.85 1023.69 1023.50 1023.31 1023.11 1022.90 1022.70 1022.48 1022.26 1022.04 1021.82 1021.59 1021.37 1021.16 1020.96 1020.79 1020.66 1020.55 1020.48 1020.45 1020.43 1020.42 1020.40 1020.37 1020.31 1020.20 1020.05 1019.84 1019.58 1019.29 1018.97 1018.62 1018.28 1017.94
1023.92 1024.08 1024.23 1024.37 1024.48 1024.54 1024.56 1024.52 1024.44 1024.33 1024.18 1024.00 1023.81 1023.61 1023.40 1023.18 1022.97 1022.74 1022.51 1022.27 1022.03 1021.79 1021.55 1021.32 1021.11 1020.93 1020.78 1020.66 1020.58 1020.51 1020.46 1020.41 1020.34 1020.25 1020.12 1019.94 1019.71 1019.43 1019.11 1018.75 1018.37 1017.98 1017.60 1017.24
1024.32 1024.48 1024.62 1024.74 1024.83 1024.87 1024.86 1024.81 1024.71 1024.58 1024.42 1024.25 1024.06 1023.86 1023.65 1023.44 1023.22 1022.99 1022.75 1022.51 1022.26 1022.00 1021.75 1021.51 1021.29 1021.09 1020.92 1020.77 1020.65 1020.54 1020.44 1020.32 1020.19 1020.02 1019.81 1019.55 1019.23 1018.88 1018.48 1018.06 1017.63 1017.20 1016.79 1016.40
1024.60 1024.76 1024.90 1025.00 1025.07 1025.09 1025.07 1025.01 1024.90 1024.77 1024.61 1024.44 1024.25 1024.05 1023.85 1023.64 1023.42 1023.19 1022.95 1022.70 1022.44 1022.18 1021.92 1021.66 1021.42 1021.20 1021.00 1020.81 1020.65 1020.48 1020.32 1020.13 1019.92 1019.67 1019.38 1019.04 1018.65 1018.23 1017.77 1017.30 1016.83 1016.37 1015.94 1015.53
1024.81 1024.96 1025.09 1025.19 1025.24 1025.26 1025.22 1025.15 1025.04 1024.91 1024.75 1024.57 1024.38 1024.19 1023.98 1023.77 1023.55 1023.31 1023.06 1022.80 1022.53 1022.26 1021.98 1021.71 1021.44 1021.19 1020.96 1020.73 1020.51 1020.30 1020.07 1019.82 1019.54 1019.22 1018.86 1018.46 1018.02 1017.54 1017.05 1016.55 1016.06 1015.58 1015.13 1014.72
1024.97 1025.12 1025.24 1025.33 1025.38 1025.38 1025.34 1025.26 1025.14 1025.00 1024.83 1024.64 1024.45 1024.24 1024.02 1023.79 1023.55 1023.30 1023.04 1022.77 1022.48 1022.19 1021.90 1021.60 1021.32 1021.04 1020.77 1020.50 1020.24 1019.97 1019.69 1019.38 1019.05 1018.69 1018.28 1017.84 1017.37 1016.87 1016.36 1015.85 1015.35 1014.87 1014.41 1013.99
1025.10 1025.25 1025.37 1025.45 1025.48 1025.47 1025.42 1025.32 1025.19 1025.03 1024.84 1024.63 1024.41 1024.18 1023.94 1023.69 1023.42 1023.15 1022.87 1022.58 1022.27 1021.96 1021.65 1021.34 1021.03 1020.73 1020.43 1020.13 1019.83 1019.53 1019.21 1018.87 1018.50 1018.10 1017.67 1017.22 1016.74 1016.24 1015.73 1015.22 1014.72 1014.23 1013.76 1013.32
1025.19 1025.34 1025.45 1025.52 1025.54 1025.52 1025.44 1025.33 1025.17 1024.98 1024.76 1024.52 1024.27 1024.00 1023.73 1023.45 1023.16 1022.86 1022.56 1022.24 1021.92 1021.60 1021.28 1020.95 1020.63 1020.31 1019.99 1019.67 1019.35 1019.01 1018.67 1018.30 1017.92 1017.51 1017.07 1016.61 1016.13 1015.63 1015.13 1014.62 1014.11 1013.61 1013.12 1012.64
Thickness
5663 5668 5667 5666 5666 5663 5656 5652 5646 5653 5656 5669 5674 5675 5676 5675 5673 5670 5667 5665 5662 5659 5656 5654 5652 5650 5649 5647 5646 5645 5643 5642 5641 5640 5639 5637 5636 5636 5635 5634 5634 5633 5632 5632
5658 5663 5661 5659 5663 5662 5659 5658 5653 5655 5658 5671 5673 5671 5669 5668 5667 5665 5663 5661 5659 5655 5652 5649 5647 5645 5644 5642 5641 5639 5638 5636 5636 5634 5633 5631 5630 5629 5628 5627 5627 5626 5625 5624
5641 5649 5652 5648 5661 5661 5660 5661 5657 5652 5660 5667 5665 5665 5664 5663 5663 5661 5660 5658 5654 5651 5648 5646 5644 5642 5640 5638 5636 5634 5632 5631 5629 5628 5626 5625 5624 5622 5620 5619 5619 5618 5618 5617
5632 5639 5634 5653 5666 5665 5659 5658 5657 5658 5660 5661 5661 5662 5662 5661 5658 5656 5656 5654 5650 5647 5645 5643 5640 5638 5635 5633 5630 5628 5626 5624 5622 5621 5619 5618 5616 5615 5613 5613 5612 5611 5611 5610
5620 5624 5632 5649 5659 5657 5652 5652 5657 5655 5656 5656 5656 5655 5654 5657 5655 5653 5652 5650 5647 5644 5641 5638 5635 5632 5629 5626 5623 5621 5619 5618 5616 5614 5612 5610 5609 5608 5607 5605 5604 5604 5604 5604
5614 5620 5622 5643 5656 5657 5652 5643 5654 5652 5650 5648 5647 5637 5642 5651 5649 5647 5646 5643 5641 5637 5634 5631 5628 5626 5623 5619 5616 5615 5613 5612 5610 5608 5606 5604 5602 5601 5599 5598 5597 5597 5596 5596
5609 5611 5623 5640 5647 5649 5633 5638 5650 5647 5645 5642 5638 5638 5642 5643 5641 5639 5637 5636 5633 5630 5626 5623 5621 5618 5615 5612 5609 5608 5606 5605 5602 5600 5598 5597 5595 5593 5591 5590 5589 5588 5588 5588
5602 5605 5617 5638 5636 5633 5635 5642 5642 5640 5639 5636 5635 5636 5635 5634 5632 5630 5628 5626 5624 5620 5616 5614 5612 5609 5606 5604 5602 5600 5598 5596 5594 5592 5591 5590 5587 5585 5583 5581 5580 5579 5579 5579
5611 5617 5626 5630 5631 5634 5634 5633 5634 5633 5633 5631 5629 5628 5627 5625 5622 5621 5619 5616 5613 5610 5607 5604 5602 5600 5597 5595 5593 5591 5589 5586 5584 5583 5582 5580 5578 5576 5574 5573 5571 5570 5570 5569
5605 5614 5620 5623 5625 5627 5628 5628 5629 5628 5627 5625 5622 5620 5618 5616 5613 5611 5609 5606 5603 5600 5597 5594 5592 5591 5588 5586 5584 5582 5579 5576 5574 5573 5572 5570 5569 5568 5566 5565 5563 5563 5562 5561
5600 5608 5613 5618 5619 5621 5622 5622 5621 5621 5620 5617 5615 5612 5610 5607 5605 5602 5600 5597 5594 5590 5588 5585 5583 5580 5579 5576 5574 5571 5568 5566 5564 5563 5561 5560 5558 5558 5558 5557 5557 5556 5555 5554
5600 5607 5605 5609 5615 5615 5614 5613 5613 5611 5610 5609 5607 5604 5602 5599 5596 5593 5590 5587 5584 5581 5578 5575 5573 5571 5569 5566 5564 5561 5558 5556 5554 5552 5551 5550 5549 5548 5549 5549 5549 5549 5549 5548
5604 5606 5603 5605 5607 5607 5606 5605 5604 5602 5601 5599 5598 5596 5593 5590 5587 5583 5580 5577 5574 5571 5568 5565 5563 5561 5559 5557 5554 5552 5549 5547 5545 5543 5541 5540 5539 5538 5538 5539 5539 5539 5539 5539
5599 5598 5596 5597 5597 5598 5597 5597 5596 5593 5591 5590 5588 5585 5582 5579 5576 5573 5570 5567 5565 5562 5558 5555 5553 5551 5549 5547 5545 5542 5540 5538 5536 5533 5531 5530 5529 5528 5527 5527 5527 5527 5528 5528
5592 5592 5590 5590 5589 5588 5587 5585 5583 5581 5580 5579 5577 5575 5572 5569 5565 5563 5560 5557 5554 5551 5548 5546 5543 5541 5539 5537 5535 5532 5530 5528 5526 5524 5522 5521 5520 5519 5517 5516 5516 5516 5516 5517
5584 5583 5582 5581 5580 5578 5576 5574 5572 5571 5570 5569 5566 5565 5563 5560 5557 5553 5550 5547 5543 5541 5538 5536 5534 5533 5530 5528 5525 5523 5521 5519 5517 5514 5512 5510 5509 5508 5507 5506 5505 5505 5505 5505
5573 5572 5571 5570 5569 5568 5566 5565 5563 5562 5560 5558 5557 5555 5552 5549 5546 5542 5540 5537 5535 5532 5529 5526 5524 5523 5521 5519 5516 5513 5511 5509 5508 5504 5502 5500 5499 5498 5497 5496 5495 5495 5494 5494
5569 5569 5566 5564 5562 5560 5558 5557 5555 5553 5551 5550 5548 5544 5541 5538 5535 5532 5529 5526 5524 5521 5519 5516 5515 5513 5511 5509 5506 5503 5500 5498 5496 5494 5492 5490 5489 5488 5487 5486 5485 5484 5484 5484
5561 5559 5558 5557 5555 5552 5550 5548 5547 5545 5543 5540 5537 5534 5531 5528 5525 5522 5518 5515 5513 5511 5509 5508 5507 5503 5500 5498 5496 5493 5491 5488 5486 5484 5483 5482 5479 5478 5477 5475 5475 5474 5473 5473
5552 5551 5550 5548 5547 5544 5542 5540 5538 5536 5534 5531 5527 5523 5520 5517 5514 5510 5507 5504 5503 5501 5500 5498 5495 5492 5490 5488 5486 5482 5480 5478 5476 5474 5473 5471 5469 5468 5467 5466 5465 5464 5463 5462
5541 5541 5540 5539 5537 5536 5534 5531 5529 5526 5524 5521 5517 5513 5510 5506 5502 5499 5496 5494 5493 5491 5490 5489 5485 5482 5480 5479 5476 5472 5470 5468 5466 5464 5463 5462 5460 5459 5457 5456 5455 5454 5453 5453
5530 5529 5529 5528 5527 5525 5524 5521 5519 5517 5513 5510 5507 5503 5499 5495 5492 5489 5487 5485 5484 5482 5480 5478 5475 5474 5472 5470 5465 5463 5460 5458 5456 5454 5453 5452 5451 5449 5448 5446 5445 5444 5443 5442
5519 5518 5518 5517 5516 5514 5513 5511 5508 5506 5503 5500 5497 5493 5489 5485 5482 5479 5477 5476 5474 5474 5471 5468 5467 5466 5464 5459 5455 5452 5450 5448 5446 5445 5444 5442 5441 5439 5438 5437 5435 5434 5433 5431
5509 5508 5508 5507 5505 5503 5501 5500 5497 5495 5492 5490 5486 5483 5480 5476 5473 5471 5469 5468 5467 5465 5461 5459 5458 5457 5453 5448 5444 5442 5440 5438 5437 5435 5434 5432 5431 5430 5428 5427 5425 5424 5423 5422
5499 5498 5497 5496 5494 5493 5492 5489 5486 5484 5481 5477 5475 5473 5470 5468 5465 5463 5460 5458 5457 5455 5451 5449 5448 5446 5441 5438 5435 5432 5430 5429 5427 5426 5424 5423 5421 5420 5419 5417 5416 5415 5414 5413
5489 5488 5487 5486 5485 5483 5481 5478 5475 5472 5469 5466 5464 5462 5460 5458 5456 5453 5451 5449 5447 5445 5441 5439 5436 5434 5431 5428 5426 5424 5421 5420 5418 5416 5415 5413 5412 5411 5410 5408 5407 5406 5405 5404
5478 5477 5476 5475 5474 5472 5470 5468 5465 5462 5460 5457 5454 5452 5450 5448 5446 5443 5441 5438 5436 5434 5431 5429 5426 5424 5421 5419 5417 5414 5412 5411 5409 5408 5406 5405 5404 5403 5402 5401 5399 5398 5397 5396